This is the latest recevied weather packets stored in our database for station/object DL9RAN-11. If no packets are shown the sender has not sent any weather packets the latest 10 day(s).
| Time | Temp. | Humidity | Pressure | Rain* | Wind** | Luminosity | Snow |
|---|---|---|---|---|---|---|---|
| 1777884310 | 23.33° C | 43% | 1018 hPa | - | - | - | - |
| 1777883679 | 23.33° C | 44% | 1018 hPa | - | - | - | - |
| 1777883047 | 22.78° C | 44% | 1018.2 hPa | - | - | - | - |
| 1777882415 | 21.67° C | 46% | 1018.2 hPa | - | - | - | - |
| 1777881784 | 21.67° C | 49% | 1018.2 hPa | - | - | - | - |
| 1777881483 | 21.11° C | 49% | 1018.2 hPa | - | - | - | - |
| 1777881183 | 20.56° C | 49% | 1018.2 hPa | - | - | - | - |
| 1777880883 | 20.56° C | 50% | 1018.2 hPa | - | - | - | - |
| 1777879920 | 17.22° C | 52% | 1018.2 hPa | - | - | - | - |
| 1777879620 | 17.22° C | 53% | 1018.2 hPa | - | - | - | - |
| 1777878988 | 17.22° C | 55% | 1018.1 hPa | - | - | - | - |
| 1777878688 | 17.22° C | 55% | 1017.8 hPa | - | - | - | - |
| 1777878388 | 17.22° C | 55% | 1017.8 hPa | - | - | - | - |
| 1777878087 | 16.67° C | 54% | 1017.9 hPa | - | - | - | - |
| 1777877787 | 16.67° C | 54% | 1017.9 hPa | - | - | - | - |
| 1777877486 | 16.67° C | 54% | 1017.9 hPa | - | - | - | - |
| 1777877186 | 16.67° C | 54% | 1017.8 hPa | - | - | - | - |
| 1777876886 | 16.67° C | 54% | 1017.6 hPa | - | - | - | - |
| 1777876254 | 16.67° C | 54% | 1017.6 hPa | - | - | - | - |
| 1777875954 | 16.67° C | 54% | 1017.6 hPa | - | - | - | - |
| 1777874660 | 16.67° C | 54% | 1017.6 hPa | - | - | - | - |
| 1777874028 | 16.67° C | 54% | 1017.5 hPa | - | - | - | - |
| 1777873728 | 16.67° C | 54% | 1017.5 hPa | - | - | - | - |
| 1777872766 | 15.56° C | 55% | 1017.5 hPa | - | - | - | - |
| 1777872134 | 15.56° C | 55% | 1017.5 hPa | - | - | - | - |
* Rain since midnight (hover to see other rain measurements)
** Current wind speed in m/s (hover to see current wind gust speed)